Total_Precipitation_Accumulation
0.09 0.16 0.36 0.44 0.50 0.49 0.44 0.39 0.35 0.33 0.32 0.34 0.37 0.38 0.36 0.35 0.34 0.33 0.34 0.37 0.43 0.48 0.54 0.58 0.56 0.51 0.43 0.35 0.23 0.14 0.13 0.15 0.11 0.08 0.07 0.09 0.13 0.14 0.11 0.10 0.11 0.17 0.23
0.09 0.16 0.32 0.44 0.53 0.57 0.52 0.45 0.37 0.32 0.32 0.38 0.42 0.41 0.39 0.38 0.38 0.36 0.43 0.45 0.50 0.50 0.53 0.57 0.57 0.46 0.36 0.27 0.17 0.13 0.13 0.07 0.04 0.03 0.02 0.04 0.07 0.08 0.09 0.09 0.11 0.18 0.22
0.12 0.18 0.31 0.44 0.54 0.56 0.51 0.45 0.37 0.33 0.34 0.39 0.45 0.44 0.44 0.43 0.43 0.41 0.44 0.48 0.54 0.53 0.46 0.44 0.42 0.32 0.24 0.16 0.12 0.11 0.10 0.06 0.03 0.03 0.03 0.06 0.08 0.10 0.11 0.11 0.15 0.21 0.21
0.18 0.22 0.32 0.49 0.63 0.63 0.56 0.49 0.42 0.41 0.41 0.44 0.50 0.51 0.52 0.49 0.48 0.50 0.46 0.45 0.51 0.47 0.40 0.34 0.27 0.19 0.15 0.13 0.10 0.09 0.07 0.04 0.03 0.03 0.05 0.08 0.09 0.16 0.17 0.16 0.19 0.22 0.20
0.25 0.30 0.41 0.55 0.73 0.73 0.62 0.53 0.47 0.49 0.51 0.54 0.57 0.60 0.62 0.56 0.55 0.55 0.50 0.45 0.46 0.39 0.32 0.27 0.20 0.13 0.10 0.09 0.09 0.09 0.08 0.06 0.03 0.03 0.06 0.10 0.13 0.21 0.20 0.19 0.21 0.23 0.20
0.32 0.40 0.52 0.65 0.82 0.89 0.75 0.63 0.55 0.54 0.58 0.64 0.68 0.71 0.69 0.68 0.66 0.61 0.49 0.43 0.38 0.32 0.26 0.23 0.19 0.13 0.09 0.08 0.08 0.08 0.10 0.08 0.04 0.03 0.04 0.08 0.13 0.23 0.24 0.21 0.23 0.26 0.25
0.38 0.53 0.68 0.82 0.93 1.07 0.97 0.83 0.73 0.69 0.69 0.72 0.76 0.74 0.75 0.77 0.77 0.69 0.50 0.38 0.34 0.31 0.25 0.21 0.19 0.14 0.10 0.10 0.09 0.08 0.09 0.08 0.06 0.07 0.06 0.07 0.13 0.26 0.26 0.24 0.26 0.26 0.24
0.49 0.62 0.86 1.11 1.17 1.27 1.24 1.04 0.90 0.82 0.80 0.82 0.82 0.80 0.81 0.81 0.81 0.78 0.56 0.40 0.33 0.31 0.27 0.22 0.20 0.17 0.12 0.11 0.10 0.09 0.10 0.07 0.06 0.07 0.06 0.07 0.12 0.20 0.20 0.18 0.20 0.23 0.24
0.76 0.76 0.89 1.13 1.30 1.39 1.42 1.18 1.07 0.94 0.85 0.86 0.90 0.90 0.81 0.75 0.77 0.74 0.57 0.43 0.37 0.37 0.34 0.29 0.26 0.23 0.17 0.15 0.13 0.10 0.08 0.06 0.05 0.07 0.06 0.07 0.10 0.17 0.17 0.17 0.21 0.25 0.28
1.14 1.08 1.03 1.13 1.25 1.43 1.50 1.23 1.08 0.97 0.90 0.89 0.90 0.82 0.67 0.63 0.67 0.66 0.52 0.42 0.38 0.40 0.38 0.33 0.28 0.26 0.22 0.18 0.14 0.11 0.08 0.06 0.05 0.06 0.06 0.07 0.10 0.17 0.19 0.22 0.24 0.26 0.30
1.47 1.46 1.37 1.29 1.23 1.30 1.44 1.30 1.17 1.06 0.94 0.88 0.87 0.78 0.69 0.64 0.64 0.57 0.44 0.37 0.37 0.39 0.41 0.36 0.31 0.29 0.22 0.17 0.14 0.12 0.11 0.09 0.08 0.09 0.09 0.08 0.11 0.18 0.24 0.29 0.30 0.30 0.31
1.56 1.52 1.55 1.50 1.39 1.37 1.41 1.37 1.29 1.13 1.02 0.90 0.81 0.76 0.74 0.68 0.63 0.54 0.46 0.40 0.41 0.40 0.45 0.43 0.36 0.30 0.22 0.17 0.17 0.14 0.13 0.10 0.11 0.12 0.10 0.10 0.15 0.24 0.30 0.33 0.29 0.29 0.31
1.83 1.67 1.63 1.65 1.65 1.54 1.48 1.39 1.30 1.10 1.02 1.00 0.91 0.80 0.77 0.81 0.76 0.71 0.58 0.48 0.48 0.44 0.44 0.43 0.40 0.31 0.23 0.20 0.19 0.14 0.14 0.15 0.14 0.13 0.12 0.12 0.18 0.29 0.33 0.32 0.28 0.27 0.29
2.21 2.04 1.93 1.95 1.90 1.75 1.63 1.51 1.38 1.14 0.99 0.96 0.94 0.92 0.87 0.84 0.73 0.68 0.60 0.48 0.46 0.45 0.44 0.43 0.37 0.34 0.31 0.26 0.24 0.21 0.18 0.17 0.16 0.17 0.17 0.16 0.17 0.25 0.33 0.36 0.33 0.33 0.33
2.37 2.37 2.26 2.23 2.19 1.99 1.85 1.70 1.44 1.26 1.05 0.94 0.93 0.96 0.90 0.81 0.74 0.66 0.60 0.55 0.48 0.46 0.45 0.45 0.42 0.39 0.38 0.36 0.32 0.27 0.24 0.22 0.20 0.21 0.22 0.23 0.21 0.23 0.31 0.41 0.45 0.47 0.50
2.37 2.53 2.58 2.53 2.43 2.23 1.98 1.79 1.56 1.42 1.22 1.10 1.03 0.97 0.91 0.87 0.84 0.78 0.66 0.58 0.51 0.48 0.48 0.51 0.52 0.48 0.43 0.40 0.35 0.33 0.29 0.25 0.22 0.21 0.22 0.23 0.22 0.23 0.29 0.40 0.50 0.59 0.67
2.33 2.56 2.72 2.80 2.89 2.61 2.32 2.03 1.75 1.57 1.44 1.30 1.15 1.03 0.93 0.88 0.93 0.92 0.83 0.68 0.57 0.58 0.56 0.57 0.59 0.61 0.57 0.48 0.41 0.38 0.36 0.32 0.28 0.25 0.24 0.23 0.20 0.19 0.24 0.36 0.48 0.55 0.63
2.33 2.44 2.60 2.62 2.84 2.92 2.75 2.42 2.01 1.76 1.58 1.47 1.35 1.19 1.08 0.97 0.99 1.01 0.95 0.90 0.79 0.74 0.71 0.68 0.63 0.59 0.56 0.50 0.45 0.41 0.40 0.39 0.35 0.33 0.34 0.28 0.22 0.17 0.19 0.27 0.35 0.41 0.50
2.36 2.42 2.58 2.58 2.65 2.83 2.95 2.77 2.42 2.13 1.86 1.70 1.61 1.42 1.29 1.23 1.18 1.17 1.07 1.03 1.05 0.97 0.87 0.80 0.74 0.66 0.61 0.57 0.54 0.53 0.50 0.45 0.40 0.38 0.35 0.29 0.27 0.25 0.23 0.23 0.26 0.30 0.35
2.36 2.54 2.65 2.78 2.80 2.94 3.21 3.19 2.86 2.55 2.30 2.12 1.91 1.79 1.63 1.49 1.42 1.34 1.27 1.20 1.21 1.15 1.03 0.94 0.84 0.77 0.70 0.69 0.67 0.61 0.56 0.48 0.45 0.42 0.37 0.34 0.32 0.33 0.35 0.35 0.34 0.32 0.33
2.05 2.32 2.39 2.63 2.80 2.96 3.03 2.95 2.76 2.51 2.33 2.23 2.17 2.11 1.94 1.77 1.66 1.51 1.40 1.36 1.34 1.27 1.15 1.09 1.03 0.91 0.86 0.88 0.84 0.69 0.57 0.51 0.45 0.40 0.41 0.42 0.39 0.36 0.37 0.43 0.46 0.42 0.34
1.66 1.85 2.00 2.18 2.41 2.62 2.74 2.70 2.71 2.71 2.50 2.27 2.18 2.14 2.10 2.02 1.89 1.70 1.53 1.48 1.44 1.39 1.26 1.20 1.23 1.19 1.07 1.06 1.05 1.00 0.82 0.65 0.50 0.44 0.44 0.43 0.42 0.44 0.41 0.39 0.39 0.41 0.41
1.34 1.53 1.67 1.83 1.99 2.11 2.47 2.71 2.71 2.78 2.66 2.33 2.08 1.94 2.01 2.11 2.11 1.94 1.75 1.68 1.61 1.59 1.50 1.41 1.36 1.33 1.30 1.25 1.25 1.35 1.16 0.87 0.63 0.51 0.50 0.47 0.46 0.49 0.51 0.48 0.45 0.43 0.42
1.06 1.26 1.46 1.64 1.78 1.82 2.08 2.36 2.39 2.27 2.20 2.07 1.99 2.03 2.07 2.09 2.13 2.12 2.01 1.87 1.77 1.71 1.65 1.72 1.74 1.62 1.52 1.39 1.30 1.23 1.20 1.04 0.97 0.75 0.56 0.54 0.50 0.49 0.53 0.55 0.52 0.49 0.44
0.87 0.97 1.17 1.46 1.60 1.66 1.73 1.92 2.13 2.17 2.12 2.12 2.10 2.08 2.04 1.96 1.99 2.07 2.07 1.95 1.77 1.64 1.56 1.61 1.69 1.73 1.61 1.48 1.38 1.30 1.25 1.11 1.02 1.00 0.79 0.62 0.57 0.51 0.51 0.55 0.60 0.62 0.61
0.75 0.75 0.90 1.10 1.39 1.55 1.61 1.69 1.82 1.90 1.87 1.90 1.96 1.99 2.02 1.94 1.84 1.84 1.88 1.83 1.78 1.66 1.55 1.55 1.65 1.71 1.69 1.62 1.50 1.37 1.30 1.22 1.06 1.07 1.02 0.83 0.75 0.65 0.62 0.65 0.69 0.73 0.74